Location: Marcé
(47.5801°N, 0.3280°W)
Time: 10:09:02
(UTC+01:00)

BlueWalker 3 - Pass Details

Date: 04 December 2022
Orbit: 499 x 517 km, 53.2° (Epoch: 29 January)

Event Time Altitude Azimuth Distance (km) Brightness Sun altitude
Rises 17:55:00 0° 280° (W) 2,634 6.6 -7.3°
Reaches altitude 10° 17:57:21 10° 290° (WNW) 1,743 5.4 -7.7°
Maximum altitude 18:01:00 35° 357° (N) 842 2.9 -8.2°
Enters shadow 18:04:20 12° 63° (ENE) 1,626 3.8 -8.8°
